New Windsor, NY

10:14 PM EST on February 20, 2017 (GMT -0500)
Stewart International

Weather History for KSWF - February, 2014

Change the Weather History Date:

Friday, February 21, 2014

  Actual Average Record
Temperature  
Mean Temperature 37 °F -  
Max Temperature 41 °F 37 °F 50 °F (2016)
Min Temperature 33 °F 21 °F -7 °F (2015)
Degree Days  
Heating Degree Days 28    
Moisture  
Dew Point 36 °F    
Average Humidity 99    
Maximum Humidity 100    
Minimum Humidity 81    
Precipitation  
Precipitation 0.00 in - - ()
Sea Level Pressure  
Sea Level Pressure 29.85 in    
Wind  
Wind Speed 8 mph (SE)    
Max Wind Speed 17 mph    
Max Gust Speed 23 mph    
Visibility 4 miles    
Events Fog , Rain , Thunderstorm    
Averages and records for this station are not official NWS values.
T = Trace of Precipitation, MM = Missing Value Source: NWS Daily Summary

Daily Weather History Graph

Daily Weather History Graph

Search for Another Location

Airport or City:

Trip Planner

Search our weather history database for the weather conditions in past years. The results will help you decide how hot, cold, wet, or windy it might be!

Date:

Astronomy

Feb. 21, 2014 Rise Set
Actual Time 6:43 AM EST 5:37 PM EST
Civil Twilight 6:15 AM EST 6:05 PM EST
Nautical Twilight 5:42 AM EST 6:37 PM EST
Astronomical Twilight 5:10 AM EST 7:09 PM EST
Moon No Moon Rise 10:00 AM EST
Length of Visible Light 11h 50m
Length of Day
10h 54m
Waning Gibbous, 61% of the Moon is Illuminated
Feb 21
Waning Gibbous
Feb 22
Last Quarter
Mar 1
New
Mar 8
First Quarter
Mar 16
Full

Hourly Weather History & Observations

Time (EST) Temp. Windchill Dew Point Humidity Pressure Visibility Wind Dir Wind Speed Gust Speed Precip Events Conditions
12:45 AM 33.8 °F 29.6 °F 33.8 °F 100% 30.02 in 0.5 mi East 4.6 mph - N/A   Overcast
1:45 AM 33.8 °F 29.6 °F 33.8 °F 100% 29.99 in 0.5 mi East 4.6 mph - N/A   Overcast
2:45 AM 35.6 °F 30.7 °F 35.6 °F 100% 29.96 in 0.2 mi East 5.8 mph - N/A Fog Fog
3:45 AM 35.6 °F 28.6 °F 35.6 °F 100% 29.95 in 0.2 mi SE 9.2 mph - N/A Fog Fog
4:45 AM 35.6 °F 27.5 °F 35.6 °F 100% 29.97 in 0.2 mi SE 11.5 mph - N/A Fog Fog
5:45 AM 35.6 °F 29.9 °F 35.6 °F 100% 29.95 in 0.1 mi East 6.9 mph - N/A Fog Fog
6:45 AM 35.6 °F 28.6 °F 35.6 °F 100% 29.94 in 18.0 mi East 9.2 mph - N/A Fog Fog
7:45 AM 35.6 °F 28.6 °F 35.6 °F 100% 29.92 in 0.1 mi ESE 9.2 mph - N/A Fog Fog
8:10 AM 35.6 °F 28.0 °F 35.6 °F 100% 29.93 in 0.8 mi ESE 10.4 mph - N/A   Overcast
8:45 AM 35.6 °F 28.0 °F 35.6 °F 100% 29.92 in 2.0 mi ESE 10.4 mph - N/A   Overcast
9:45 AM 35.6 °F 25.9 °F 35.6 °F 100% 29.89 in 3.0 mi ESE 16.1 mph 23.0 mph N/A   Overcast
10:45 AM 35.6 °F 26.6 °F 35.6 °F 100% 29.87 in 3.0 mi SE 13.8 mph - N/A   Overcast
10:55 AM 35.6 °F 26.6 °F 35.6 °F 100% 29.87 in 3.0 mi SE 13.8 mph - N/A   Overcast
11:45 AM 37.4 °F 28.9 °F 37.4 °F 100% 29.82 in 3.0 mi SE 13.8 mph - N/A   Overcast
12:45 PM 37.4 °F 29.8 °F 37.4 °F 100% 29.77 in 2.0 mi ESE 11.5 mph - N/A   Mist
1:45 PM 39.2 °F 30.2 °F 39.2 °F 100% 29.69 in 0.5 mi SE 17.3 mph - N/A   Overcast
2:45 PM 41.0 °F 32.5 °F 41.0 °F 100% 29.67 in 0.2 mi SE 17.3 mph - N/A Fog Fog
3:05 PM 41.0 °F 34.3 °F 41.0 °F 100% 29.66 in 0.2 mi SE 11.5 mph - N/A Fog , Rain , Thunderstorm Thunderstorms and Rain
3:45 PM 37.4 °F 30.8 °F 37.4 °F 100% 29.69 in 5.0 mi WNW 9.2 mph - N/A Rain Light Rain
4:45 PM 41.0 °F 36.4 °F 41.0 °F 100% 29.73 in 5.0 mi SW 6.9 mph - N/A   Light Drizzle
5:45 PM 41.0 °F 35.8 °F 41.0 °F 100% 29.74 in 10.0 mi WSW 8.1 mph - N/A   Mostly Cloudy
6:45 PM 39.2 °F - 39.2 °F 100% 29.77 in 10.0 mi Calm Calm - N/A   Mostly Cloudy
7:45 PM 37.4 °F 31.4 °F 37.4 °F 100% 29.81 in 10.0 mi West 8.1 mph - N/A   Scattered Clouds
8:45 PM 35.6 °F 29.2 °F 35.6 °F 100% 29.84 in 10.0 mi WNW 8.1 mph - N/A   Partly Cloudy
9:45 PM 33.8 °F - 32.0 °F 93% 29.83 in 10.0 mi Calm Calm - N/A   Partly Cloudy
10:45 PM 33.8 °F - 32.0 °F 93% 29.86 in 10.0 mi Calm Calm - N/A   Clear
11:45 PM 37.4 °F 31.4 °F 32.0 °F 81% 29.89 in 10.0 mi WSW 8.1 mph - N/A   Clear